This is the latest recevied weather packets stored in our database for station/object K9NZF-1. If no packets are shown the sender has not sent any weather packets the latest 10 day(s).
| Time | Temp. | Humidity | Pressure | Rain* | Wind** | Luminosity | Snow |
|---|---|---|---|---|---|---|---|
| 1778350563 | 19.44° C | 72% | 1006.7 hPa | 0 mm | - | 940 W/m² | - |
| 1778350501 | 19.44° C | 72% | 1006.7 hPa | 0 mm | - | 942 W/m² | - |
| 1778350443 | 19.44° C | 72% | 1006.7 hPa | 0 mm | - | 925 W/m² | - |
| 1778350379 | 19.44° C | 71% | 1006.7 hPa | 0 mm | - | 925 W/m² | - |
| 1778350320 | 19.44° C | 73% | 1006.8 hPa | 0 mm | - | 923 W/m² | - |
| 1778350254 | 19.44° C | 73% | 1006.7 hPa | 0 mm | - | 926 W/m² | - |
| 1778350194 | 19.44° C | 74% | 1006.8 hPa | 0 mm | - | 926 W/m² | - |
| 1778350143 | 19.44° C | 74% | 1006.7 hPa | 0 mm | - | 928 W/m² | - |
| 1778350071 | 19.44° C | 74% | 1006.7 hPa | 0 mm | - | 930 W/m² | - |
| 1778350008 | 19.44° C | 74% | 1006.7 hPa | 0 mm | - | 940 W/m² | - |
| 1778349948 | 19.44° C | 72% | 1006.7 hPa | 0 mm | - | 932 W/m² | - |
| 1778349885 | 19.44° C | 71% | 1006.7 hPa | 0 mm | - | 997 W/m² | - |
| 1778349826 | 19.44° C | 71% | 1006.8 hPa | 0 mm | - | 1034 W/m² | - |
| 1778349760 | 19.44° C | 71% | 1006.7 hPa | 0 mm | - | 953 W/m² | - |
| 1778349702 | 19.44° C | 72% | 1006.7 hPa | 0 mm | - | 951 W/m² | - |
| 1778349645 | 19.44° C | 70% | 1006.7 hPa | 0 mm | - | 947 W/m² | - |
| 1778349579 | 19.44° C | 70% | 1006.8 hPa | 0 mm | - | 944 W/m² | - |
| 1778349518 | 19.44° C | 73% | 1006.7 hPa | 0 mm | - | 946 W/m² | - |
| 1778349459 | 19.44° C | 74% | 1006.8 hPa | 0 mm | - | 940 W/m² | - |
| 1778349395 | 19.44° C | 74% | 1006.7 hPa | 0 mm | - | 935 W/m² | - |
| 1778349343 | 19.44° C | 74% | 1006.7 hPa | 0 mm | - | 946 W/m² | - |
| 1778349276 | 19.44° C | 72% | 1006.8 hPa | 0 mm | - | 956 W/m² | - |
| 1778349220 | 19.44° C | 73% | 1006.8 hPa | 0 mm | - | 953 W/m² | - |
| 1778349155 | 19.44° C | 72% | 1006.8 hPa | 0 mm | - | 940 W/m² | - |
| 1778349094 | 19.44° C | 73% | 1006.9 hPa | 0 mm | - | 937 W/m² | - |
* Rain latest hour (hover to see other rain measurements)
** Current wind speed in m/s (hover to see current wind gust speed)